Location: Unspecified
(41.5516°N, 88.1098°W)
Time: 17:25:46
(UTC-06:00)

Okean 3 - Visible Passes

Search period start: 01 March 2015 00:00
Search period end: 11 March 2015 01:00
Orbit: 581 x 607 km, 82.5° (Epoch: 01 March)

Date Brightness Start Highest point End Pass type
(mag) Time Alt. Az. Time Alt. Az. Time Alt. Az.
01 Mar 6.6 03:03:24 12° NE 03:03:24 12° NE 03:03:55 10° NE visible
01 Mar 5.0 04:40:04 22° NNW 04:40:04 22° NNW 04:41:56 10° N visible
02 Mar 6.4 03:13:14 14° NE 03:13:14 14° NE 03:13:57 10° NNE visible
02 Mar 5.4 04:49:53 15° NNW 04:49:53 15° NNW 04:51:02 10° NNW visible
03 Mar 6.2 03:23:00 15° NNE 03:23:00 15° NNE 03:23:45 10° NNE visible
03 Mar 5.8 04:59:39 11° NW 04:59:39 11° NW 04:59:51 10° NNW visible
04 Mar 6.1 03:32:42 14° NNE 03:32:42 14° NNE 03:33:22 10° NNE visible
05 Mar 6.1 03:42:22 13° N 03:42:22 13° N 03:42:51 10° N visible
06 Mar 6.1 03:52:00 11° N 03:52:00 11° N 03:52:13 10° N visible
